www.pogodaiklimat.ru

Погода и климат >> Архив погоды >> Канада >> Medicine Hat Arpt


ПОГОДА в Medicine Hat Arpt

  • Прогноз погоды в Medicine Hat Arpt
  • Монитор погоды в Medicine Hat Arpt
  • Климат города

АРХИВ ПОГОДЫ в Medicine Hat Arpt

Время (UTC), дата Ветер
(напр.,м/с)
 
Видим.   Явления Облачность Т
(С)
Тd
(С)
f
(%)
Тe
(С)
Тes
(С)
Комфортность P
(гПа)
Po
(гПа)
Тmin
(С)
Tmax
(С)
R
(мм)
R24
(мм)
S
(см)
00 10.08 В 1 н/о н/о +0.8 -1.6 84 0 0 1008.2 998.9 -2.0 +0.8
03 10.08 Ю 4 н/о н/о +1.8 -0.4 85 -3 -3 1007.2 997.9
06 10.08 Ю 5 н/о н/о +1.2 -0.3 90 -4 -4 1005.7 996.4 -2.0 +2.1
09 10.08 Ю 6 н/о н/о +1.2 -0.7 87 -5 -5 1004.6 995.3
12 10.08 Ю 9 н/о н/о +0.8 -0.2 93 -7 -7 1003.6 994.3 +0.5 +2.1
15 10.08 Ю 10 н/о н/о +1.6 -0.3 87 -6 -6 1002.3 993.1
00 11.08 Ю 6 н/о н/о +0.7 +0.3 97 -6 -6 1001.7 992.5 +0.3 +2.1 0.2
03 11.08 Ю 6 н/о {осадки} н/о +0.5 +0.2 98 -6 -6 1001.0 991.8 1
06 11.08 Ю 4 н/о {осадки} н/о +0.3 +0.3 100 -5 -5 1000.9 991.7 +0.2 +2.1 1
09 11.08 Ю 7 н/о н/о +1.5 +0.3 92 -5 -5 1001.8 992.6
12 11.08 З 10 н/о н/о -0.1 -1.4 91 -9 -9 1002.4 993.1 -0.3 +2.1
15 11.08 З 9 н/о н/о -0.2 -1.9 88 -8 -8 1003.1 993.8
18 11.08 З 12 н/о н/о +0.2 -2.3 83 -8 -8 1003.9 994.6 -0.7 +1.5
21 11.08 З 11 н/о н/о +0.5 -2.7 79 -8 -8 1005.3 996.0
00 12.08 З 7 н/о н/о +2.4 -2.9 68 -4 -4 1006.7 997.4 -0.7 +2.9
03 12.08 ЮВ 3 н/о н/о 0.0 -2.3 84 -4 -4 1007.3 998.0
06 12.08 ЮЗ 2 н/о н/о +0.7 -2.2 81 -2 -2 1006.8 997.5 -0.7 +2.9 20
12 12.08 Ю 6 н/о н/о +0.9 0.0 94 -6 -6 1005.4 996.1 +2.9
15 12.08 Ю 11 н/о н/о +0.5 -0.8 91 -8 -8 1003.1 993.8
18 12.08 ЮВ 15 н/о {осадки} н/о +0.1 0.0 99 -10 -10 1001.0 991.8 1
21 12.08 Ю 11 н/о н/о +1.0 +0.5 96 -7 -7 1000.4 991.2
00 13.08 Ю 10 н/о н/о +2.4 +1.4 93 -5 -5 1000.1 990.9 +2.5
03 13.08 З 11 н/о н/о +1.0 +0.2 94 -7 -7 999.9 990.7
06 13.08 З 16 н/о н/о -0.4 -1.5 92 -10 -10 999.6 990.4 6
09 13.08 З 10 н/о н/о -1.7 -3.3 89 -11 -11 1002.8 993.5
15 13.08 З 14 н/о н/о -1.4 -4.8 78 -11 -11 1002.3 993.0
18 13.08 З 8 н/о н/о -1.6 -3.9 84 -10 -10 1003.4 994.1 -2.7 -0.3
21 13.08 ЮЗ 8 н/о н/о -1.0 -5.4 72 -8 -8 1002.8 993.5
00 14.08 ЮЗ 12 н/о н/о -0.5 -5.7 68 -9 -9 1001.2 991.9 -2.7 -0.4
03 14.08 ЮЗ 12 н/о н/о -1.6 -4.5 81 -11 -11 1000.0 990.7
06 14.08 З 20 н/о н/о -3.1 -4.7 89 -15 -15 998.1 988.8 -3.1 -0.3 6
09 14.08 З 20 н/о н/о -2.6 -3.7 92 -14 -14 998.9 989.6
12 14.08 З 14 н/о н/о -2.8 -4.2 90 -13 -13 1003.7 994.4 -3.1 -0.3
15 14.08 З 11 н/о н/о -3.6 -5.3 88 -13 -13 1007.2 997.8
18 14.08 З 8 н/о н/о -2.8 -3.7 94 -11 -11 1009.5 1000.1 -3.7 -2.3
21 14.08 З 12 н/о н/о -1.6 -3.4 88 -11 -11 1009.9 1000.5
00 15.08 З 20 н/о н/о -0.7 -2.5 88 -12 -12 1009.3 999.9 -3.7 -0.4
03 15.08 З 12 н/о {осадки} н/о -1.5 -2.5 93 -11 -11 1011.2 1001.8 0.5
06 15.08 З 6 н/о {осадки} н/о -2.0 -2.4 97 -13 -13 1009.5 1000.1 -3.7 -0.4 0.9 8
09 15.08 Ю 3 н/о н/о -1.6 -2.2 96 -6 -6 1011.7 1002.3 0.7
12 15.08 Ю 5 н/о {осадки} н/о -1.5 -1.7 99 -8 -8 1011.2 1001.8 -2.0 -0.4 2
15 15.08 З 13 н/о {осадки} н/о -1.5 -2.5 93 -11 -11 1009.2 999.8 1
18 15.08 З 20 н/о {осадки} н/о -2.1 -2.8 95 -14 -14 1008.5 999.1 -2.8 -0.6 2
21 15.08 З 10 н/о н/о -1.9 -2.7 94 -11 -11 1010.6 1001.2 0.3
00 16.08 З 11 н/о н/о -1.8 -2.6 94 -11 -11 1011.7 1002.3 -2.2 -0.7 0.3
03 16.08 З 12 н/о н/о -2.0 -2.8 94 -12 -12 1012.3 1002.9
06 16.08 З 9 н/о н/о -2.2 -2.5 98 -11 -11 1013.6 1004.2 -2.2 -0.6 17
09 16.08 З 9 н/о н/о -2.4 -2.9 96 -11 -11 1014.7 1005.3
12 16.08 З 5 н/о н/о -2.8 -3.8 93 -10 -10 1016.5 1007.1 -3.0 -0.6
15 16.08 С 4 н/о н/о -2.8 -3.1 98 -9 -9 1017.8 1008.4
18 16.08 С 4 н/о н/о -1.5 -3.5 86 -7 -7 1018.7 1009.3 -3.0 -1.5 0.5
21 16.08 С 4 н/о {осадки} н/о -1.0 -3.2 85 -7 -7 1019.8 1010.3 0.3

 

Местоположение метеостанции Medicine Hat Arpt (Канада): широта 50.02 долгота -110.70 высота над уровнем моря 716 м.

В архиве по умолчанию представлена погода в Medicine Hat Arpt за последнюю неделю. Архивные данные за месяц целиком и за предыдущие месяцы, начиная с января 2011 года, Вы можете получить, выбрав интересующий диапазон дат из раскрывающегося списка и нажав кнопку "Ввод!".

Внимание! Время в таблицах - всемирное. Для получения местного времени необходимо прибавить поправку, которая в Medicine Hat Arpt равна -7 ч.

Смотрите также архив погоды в соседних городах и на ближайших метеорологических станциях:

Погода в Seven Persons Agdm (Канада) (18 км)
Погода в Irvine Agcm (Канада) (32 км)
Погода в Bow Island Agdm (Канада) (46 км)
Погода в Schuler Radar (Канада) (48 км)
Погода в Schuler Agdm (Канада) (59 км)
Погода в Bow Island (Канада) (60 км)
Погода в Grassy Lake (Канада) (73 км)
Погода в Foremost Agdm (Канада) (79 км)
Погода в Etzicom Agcm (Канада) (81 км)
Погода в Atlee (Канада) (89 км)

Пояснения к столбцам:

Ветер - указаны скорость ветра в м/с - средняя за 10 мин, порывы в срок и между сроками (в фигурных скобках) и направление, откуда дует ветер: С - северный, СВ - северо-восточный, В - восточный, ЮВ - юго-восточный, Ю - южный, ЮЗ - юго-западный, З - западный, СЗ - северо-западный.
Видимость - горизонтальная дальность видимости в метрах или километрах. При видимости от 1 до 10 км при отсутствии осадков обычно наблюдается дымка, при ухудшении видимости до 1 км и менее - туман. В сухую погоду видимость может ухудшаться дымом, пылью или мглою.
Явления - указаны атмосферные явления, наблюдавшиеся в срок или в последний час перед сроком; фигурными скобками обозначены явления, наблюдавшиеся между сроками (за 1-3 часа до срока); квадратными скобками обозначены град или гололедные отложения с указанием их диаметра в мм.
Облачность - указаны через наклонную черту общая и нижняя облачность в баллах и высота нижней границы облаков в метрах; квадратными скобками обозначены формы облаков: Ci - перистые, Cs - перисто-слоистые, Cc - перисто-кучевые, Ac - высококучевые, As - высокослоистые, Sc - слоисто-кучевые, Ns - слоисто-дождевые, Cu - кучевые, Cb - кучево-дождевые. Подробнее классификацию облаков см. в Атласе облаков (PDF).
T - Температура воздуха - температура, измеренная на высоте 2 м над землей.
Td - Температура точки росы - температура, при понижении до которой содержащийся в воздухе водяной пар достигнет насыщения.
f - Относительная влажность воздуха - влажноcть воздуха, измеренная на высоте 2 м над землей.
Te - Эффективная температура - температура, которую ощущает одетый по сезону человек в тени. Характеристика душности погоды. При расчете учитывается влияние влажности воздуха и скорости ветра на теплоощущения человека.
Tes - Эффективная температура на солнце - температура, которую ощущает человек, с поправкой на солнечный нагрев. Характеристика знойности погоды. Зависит от высоты солнца над горизонтом, облачности и скорости ветра. Ночью, в пасмурную погоду, а также при ветре 12 м/с и более поправка равна нулю.
P - Атмосферное давление - приведенное к уровню моря атмосферное давление.
Po - Атмосферное давление - измеренное на уровне метеостанции атмосферное давление.
Tmin - Минимальная температура - минимум температуры воздуха на высоте 2 м над землей.
Tmax - Максимальная температура - максимум температуры воздуха на высоте 2 м над землей.
R - Количество осадков - Количество выпавших осадков за период времени, мм. При наведении курсора мыши на число - период времени, за который выпало указанное количество осадков.
R24 - Количество осадков - Количество выпавших осадков за 24 часа, мм.
S - Снежный покров - Высота снежного покрова, см. При наведении курсора мыши на число - состояние снежного покрова и степень покрытия местности в баллах.